Location: Unspecified
(45.1858°N, 0.0000°E)
Time: 06:44:05
(UTC+00:00)

Cosmos 783 Rocket - Visible Passes

Search period start: 04 April 2026 00:00
Search period end: 14 April 2026 00:00
Orbit: 754 x 775 km, 74.1° (Epoch: 29 March)

Date Brightness Start Highest point End Pass type
(mag) Time Alt. Az. Time Alt. Az. Time Alt. Az.
4 Apr 4.6 19:37:56 10° NNW 19:43:06 61° ENE 19:47:22 15° SE visible
4 Apr 6.8 21:21:03 10° NW 21:24:33 18° W 21:27:36 12° SW visible
5 Apr 5.2 18:59:58 10° N 19:04:48 37° ENE 19:09:37 10° SE visible
5 Apr 6.1 20:42:07 10° NW 20:46:40 31° W 20:50:51 12° SSW visible
6 Apr 5.2 20:03:36 10° NNW 20:08:40 53° WSW 20:13:44 10° S visible
7 Apr 4.5 19:25:19 10° NNW 19:30:34 90° ENE 19:35:48 10° SSE visible
7 Apr 7.2 21:09:54 10° WNW 21:11:42 12° W 21:13:30 10° WSW visible
8 Apr 6.8 20:30:05 10° NW 20:33:53 21° W 20:37:42 10° SW visible
9 Apr 6.1 19:51:16 10° NW 19:55:58 35° WSW 20:00:41 10° SSW visible
10 Apr 5.1 19:12:48 10° NNW 19:17:57 60° WSW 19:23:05 10° S visible
11 Apr 7.3 20:18:34 10° WNW 20:21:02 13° W 20:23:30 10° WSW visible
12 Apr 6.9 19:39:08 10° NW 19:43:12 23° W 19:47:16 10° SSW visible
